Friday, October 31, 2014
14:18 UTC
  |  Log In   |  Register Free
Airport Search:

Shenandoah Valley Regional Airport
(KSHD)

Shenandoah Valley Regional Airport Diagram
No Airport Diagram Available

FAA data valid effective September 18, 2014 - November 13, 2014 (unless otherwise noted).

 
 
 
 
 
 
 
 
 
 
 
 
 
 

Current Aviation Weather for Shenandoah Valley Regional Airport (KSHD)

The most recent METAR observation for KSHD was updated at: 1418
METAR Summary (Translated METAR)
KSHD
311355Z AUTO 00000KT 10SM OVC050 05/02 A2999 RMK AO2 T00480023
KVBW
311255Z AUTO 00000KT 10SM OVC043 02/01 A2998 RMK AO2 T00170006
(6.9 nm NW from KSHD)
KW13
311255Z AUTO 00000KT 10SM OVC045 02/01 A2997 RMK AO1 T00210007
(11.4 nm SW from KSHD)
TAF
No TAF information found within 50 nm of KSHD
  Airport Weather Conditions for KSHD

 Current Weather at SHD
41° F
Overcast
North winds at 0.0 mph
SHD NOAA Radar

Pressure: 29.99 in
Humidity: 84%
Wind: Calm
Dew Point: 36.1°F
Visibility: 10.00 mi


Airport Weather Forecast for KSHD

Translated METAR and TAF for KSHD
Translated METAR for KSHD (1413 UTC 31 October 2014)
found at http://aviationweather.gov/adds/metars/
 
METAR text: KSHD 311355Z AUTO 00000KT 10SM OVC050 05/02 A2999 RMK AO2 T00480023
Conditions at: KSHD (STAUNTON/SHENAND, VA, US) observed 1355 UTC 31 October 2014
Temperature: 4.8°C (41°F)
Dewpoint: 2.3°C (36°F) [RH = 84%]
Pressure (altimeter): 29.99 inches Hg (1015.7 mb)
Winds: calm
Visibility: 10 or more miles (16+ km)
Ceiling: 5000 feet AGL
Clouds: overcast cloud deck at 5000 feet AGL
Weather: automated observation with no human augmentation;
there may or may not be significant weather present at this time
Translated TAF for KSHD

There is no translated TAF available for this airport

Find All Airport Services Find A Hotel Find A Rental Car Find A Golf Course Find A Restaurant $100 Hamburger



FBO's on the Field
FBO Company Facility Photos Services Transportation Aviation Fuel Prices: Prices include tax
Catering Weather Repair Courtesy Rental Type 100LL JetA JetA+ MOGAS 8087
 
Avnet Shenandoah Valley

This FBO has not yet been rated
FS:Avfuel
Last Updated: Oct-29
Login to update fuel prices
SS:
Contact Avnet Shenandoah ValleyMore FBO Information
 
Add another FBO Facility Photos Catering Weather Repair Courtesy Rental Type 100LL JetA JetA+ MOGAS 8087
Services Transportation Aviation Fuel Prices: Prices include tax


model-print
model-print
model-print
model-print